Weather Roundup
Issued by NWS Chicago, IL

Home | Current Version | Previous Version | Graphics & Text | Print | Product List | Glossary On
Versions: 1 2 3 4 5 6 7 8 9 10 11 12 13 14 15 16 17 18 19 20 21 22 23 24 25 26 27 28 29 30 31 32 33 34 35 36 37 38 39 40 41 42 43 44 45 46 47 48 49 50
000
NZUS59 KLOT 262304
HRRLOT

CHICAGO AREA WEATHER ROUNDUP
NATIONAL WEATHER SERVICE CHICAGO/ROMEOVILLE IL
600 PM CDT WED JUL 26 2017

NOTE: "FAIR" INDICATES FEW OR NO CLOUDS BELOW 12,000 FEET WITH NO
SIGNIFICANT WEATHER AND/OR OBSTRUCTIONS TO VISIBILITY.

* THESE STATIONS ARE NOT UNDER NWS QUALITY CONTROL. THEY ALSO MAY NOT
  REPORT WEATHER SUCH AS PRECIPITATION OR FOG.

ILZ005-006-012>014-019>023-270000-
NORTHEAST ILLINOIS

CITY           SKY/WX    TMP DP  RH WIND       PRES   REMARKS
OHARE          CLOUDY    82  70  66 SW7       29.97F HX  86
MIDWAY         CLOUDY    83  70  64 S10       29.97F HX  87
AURORA         CLOUDY    80  75  84 SE8       29.97F HX  85
LANSING*       CLOUDY    80  70  71 S6        29.99F HX  83
JOLIET*        CLOUDY    82  74  78 SE6       29.97F HX  88
WAUKEGAN       PTSUNNY   77  72  84 E6        29.97F
DUPAGE AIRPORT CLOUDY    80  74  81 S7        29.97F HX  85
WHEELING       CLOUDY    83  71  67 S7        29.98F HX  87
MORRIS*        CLOUDY    80  75  83 E6        29.95F HX  86
LEWIS AIRPORT* CLOUDY    80  70  73 SE5       29.98F HX  83
NORTHERLY ISL    N/A     82  67  60 S9          N/A  HX  84
$$

WIZ051-052-058>065-066-070>072-270000-
SOUTHEAST WISCONSIN

CITY           SKY/WX    TMP DP  RH WIND       PRES   REMARKS
MILWAUKEE      CLOUDY    74  70  87 N21G26    29.99R
KENOSHA*       CLOUDY    81  69  67 SE9       29.98F HX  84
RACINE*        CLOUDY    78  70  76 S10       30.00S HX  80
WAUKESHA       CLOUDY    72  70  94 NE8       29.99F
$$

INZ001>003-010>013-019-020-270000-
NORTHWEST INDIANA

CITY           SKY/WX    TMP DP  RH WIND       PRES   REMARKS
GARY*          CLOUDY    82  68  61 S6        29.99F HX  85
MICHIGAN CITY* NOT AVBL
RENSSELAER*    NOT AVBL
VALPARAISO     CLOUDY    81  72  74 S6        30.01F HX  85
$$

LMZ740>746-270000-
SOUTHERN LAKE MICHIGAN

STATION/POSITION TIME  SKY/WX   TEMP WIND        PRES    VSBY
                                AIR  DIR/SP/G
                 (UTC)          (F)  (DEG/KT/KT) (MB)    (MI)
HARRISON CRIB    2240            79  180/  7/  8   N/A
BURNHAM HARBOR   2300            81                N/A
CALUMET HARBOR   2230            82  180/  7/  9 1015.0F
BURNS HARBOR     2200            82  210/ 10/ 11 1016.3
MICHIGAN CITY    2240            80  160/  7/  8   N/A
$$

ABBREVIATIONS USED IN REMARKS
   TC - TEMPERATURE IN CELSIUS
  WCI - WIND CHILL INDEX
   HX - HEAT INDEX
  VSB - VISIBILITY
$$




USA.gov is the U.S. government's official web portal to all federal, state and local government web resources and services.